owner,sensor,date,latitude,longitude,air_pressure(mBar),qcFlag 
DISL,ioos:station:DISL:DISL:1,2019-02-01T00:40:00Z,30.2513,-88.0778,1025.060253,1111122 
DISL,ioos:station:DISL:DISL:1,2019-02-01T01:40:00Z,30.2513,-88.0778,1025.060253,1111122 
DISL,ioos:station:DISL:DISL:1,2019-02-01T02:40:00Z,30.2513,-88.0778,1025.398892,1111122 
DISL,ioos:station:DISL:DISL:1,2019-02-01T03:40:00Z,30.2513,-88.0778,1024.382975,1111122 
DISL,ioos:station:DISL:DISL:1,2019-02-01T04:40:00Z,30.2513,-88.0778,1024.721614,1111122 
DISL,ioos:station:DISL:DISL:1,2019-02-01T05:40:00Z,30.2513,-88.0778,1025.060253,1111122 
DISL,ioos:station:DISL:DISL:1,2019-02-01T06:40:00Z,30.2513,-88.0778,1024.044336,1111122 
DISL,ioos:station:DISL:DISL:1,2019-02-01T07:40:00Z,30.2513,-88.0778,1023.705697,1111122 
DISL,ioos:station:DISL:DISL:1,2019-02-01T08:40:00Z,30.2513,-88.0778,1024.044336,1111122 
DISL,ioos:station:DISL:DISL:1,2019-02-01T09:40:00Z,30.2513,-88.0778,1023.367058,1111122 
DISL,ioos:station:DISL:DISL:1,2019-02-01T10:40:00Z,30.2513,-88.0778,1022.68978,1111122 
DISL,ioos:station:DISL:DISL:1,2019-02-01T11:40:00Z,30.2513,-88.0778,1023.705697,1111122 
DISL,ioos:station:DISL:DISL:1,2019-02-01T12:40:00Z,30.2513,-88.0778,1024.044336,1111122 
DISL,ioos:station:DISL:DISL:1,2019-02-01T13:40:00Z,30.2513,-88.0778,1024.382975,1111122 
DISL,ioos:station:DISL:DISL:1,2019-02-01T14:40:00Z,30.2513,-88.0778,1024.044336,1111122 
DISL,ioos:station:DISL:DISL:1,2019-02-01T15:40:00Z,30.2513,-88.0778,1024.044336,1111122 
DISL,ioos:station:DISL:DISL:1,2019-02-01T16:40:00Z,30.2513,-88.0778,1023.367058,1111122 
DISL,ioos:station:DISL:DISL:1,2019-02-01T17:40:00Z,30.2513,-88.0778,1024.044336,1111122 
DISL,ioos:station:DISL:DISL:1,2019-02-01T18:40:00Z,30.2513,-88.0778,1023.028419,1111122 
DISL,ioos:station:DISL:DISL:1,2019-02-01T19:40:00Z,30.2513,-88.0778,1022.351141,1111122 
DISL,ioos:station:DISL:DISL:1,2019-02-01T20:41:00Z,30.2513,-88.0778,1022.012502,1111122 
DISL,ioos:station:DISL:DISL:1,2019-02-01T21:41:00Z,30.2513,-88.0778,1022.68978,1111122 
DISL,ioos:station:DISL:DISL:1,2019-02-01T22:41:00Z,30.2513,-88.0778,1022.68978,1111122 
DISL,ioos:station:DISL:DISL:1,2019-02-01T23:41:00Z,30.2513,-88.0778,1023.028419,1111122 
DISL,ioos:station:DISL:DISL:1,2019-02-02T00:41:00Z,30.2513,-88.0778,1023.028419,1111122 
DISL,ioos:station:DISL:DISL:1,2019-02-02T01:41:00Z,30.2513,-88.0778,1023.028419,1111122 
DISL,ioos:station:DISL:DISL:1,2019-02-02T02:41:00Z,30.2513,-88.0778,1023.705697,1111122 
DISL,ioos:station:DISL:DISL:1,2019-02-02T03:41:00Z,30.2513,-88.0778,1022.68978,1111122 
DISL,ioos:station:DISL:DISL:1,2019-02-02T04:41:00Z,30.2513,-88.0778,1023.028419,1111122 
DISL,ioos:station:DISL:DISL:1,2019-02-02T05:41:00Z,30.2513,-88.0778,1023.028419,1111122 
DISL,ioos:station:DISL:DISL:1,2019-02-02T06:41:00Z,30.2513,-88.0778,1022.351141,1111122 
DISL,ioos:station:DISL:DISL:1,2019-02-02T07:41:00Z,30.2513,-88.0778,1022.012502,1111122 
DISL,ioos:station:DISL:DISL:1,2019-02-02T08:41:00Z,30.2513,-88.0778,1022.012502,1111122 
DISL,ioos:station:DISL:DISL:1,2019-02-02T09:41:00Z,30.2513,-88.0778,1020.996585,1111122 
DISL,ioos:station:DISL:DISL:1,2019-02-02T10:41:00Z,30.2513,-88.0778,1021.335224,1111122 
DISL,ioos:station:DISL:DISL:1,2019-02-02T11:41:00Z,30.2513,-88.0778,1021.335224,1111122 
DISL,ioos:station:DISL:DISL:1,2019-02-02T12:41:00Z,30.2513,-88.0778,1021.335224,1111122 
DISL,ioos:station:DISL:DISL:1,2019-02-02T13:41:00Z,30.2513,-88.0778,1022.351141,1111122 
DISL,ioos:station:DISL:DISL:1,2019-02-02T14:41:00Z,30.2513,-88.0778,1022.351141,1111122 
DISL,ioos:station:DISL:DISL:1,2019-02-02T15:41:00Z,30.2513,-88.0778,1022.68978,1111122 
DISL,ioos:station:DISL:DISL:1,2019-02-02T16:41:00Z,30.2513,-88.0778,1022.012502,1111122 
DISL,ioos:station:DISL:DISL:1,2019-02-02T17:41:00Z,30.2513,-88.0778,1021.673863,1111122 
DISL,ioos:station:DISL:DISL:1,2019-02-02T18:41:00Z,30.2513,-88.0778,1019.980668,1111122 
DISL,ioos:station:DISL:DISL:1,2019-02-02T19:41:00Z,30.2513,-88.0778,1019.642029,1111122 
DISL,ioos:station:DISL:DISL:1,2019-02-02T20:41:00Z,30.2513,-88.0778,1019.30339,1111122 
DISL,ioos:station:DISL:DISL:1,2019-02-02T21:41:00Z,30.2513,-88.0778,1019.30339,1111122 
DISL,ioos:station:DISL:DISL:1,2019-02-02T22:41:00Z,30.2513,-88.0778,1018.626112,1111122 
DISL,ioos:station:DISL:DISL:1,2019-02-02T23:41:00Z,30.2513,-88.0778,1018.287473,1111122 
DISL,ioos:station:DISL:DISL:1,2019-02-03T00:41:00Z,30.2513,-88.0778,1018.964751,1111122 
DISL,ioos:station:DISL:DISL:1,2019-02-03T01:41:00Z,30.2513,-88.0778,1019.30339,1111122 
DISL,ioos:station:DISL:DISL:1,2019-02-03T02:41:00Z,30.2513,-88.0778,1018.964751,1111122 
DISL,ioos:station:DISL:DISL:1,2019-02-03T03:41:00Z,30.2513,-88.0778,1018.964751,1111122 
DISL,ioos:station:DISL:DISL:1,2019-02-03T04:41:00Z,30.2513,-88.0778,1018.626112,1111122 
DISL,ioos:station:DISL:DISL:1,2019-02-03T05:41:00Z,30.2513,-88.0778,1018.626112,1111122 
DISL,ioos:station:DISL:DISL:1,2019-02-03T06:41:00Z,30.2513,-88.0778,1018.287473,1111122 
DISL,ioos:station:DISL:DISL:1,2019-02-03T07:41:00Z,30.2513,-88.0778,1017.610195,1111122 
DISL,ioos:station:DISL:DISL:1,2019-02-03T08:41:00Z,30.2513,-88.0778,1016.932917,1111122 
DISL,ioos:station:DISL:DISL:1,2019-02-03T09:41:00Z,30.2513,-88.0778,1016.594278,1111122 
DISL,ioos:station:DISL:DISL:1,2019-02-03T10:41:00Z,30.2513,-88.0778,1016.594278,1111122 
DISL,ioos:station:DISL:DISL:1,2019-02-03T11:41:00Z,30.2513,-88.0778,1016.594278,1111122 
DISL,ioos:station:DISL:DISL:1,2019-02-03T12:41:00Z,30.2513,-88.0778,1016.932917,1111122 
DISL,ioos:station:DISL:DISL:1,2019-02-03T13:41:00Z,30.2513,-88.0778,1017.948834,1111122 
DISL,ioos:station:DISL:DISL:1,2019-02-03T14:41:00Z,30.2513,-88.0778,1018.287473,1111122 
DISL,ioos:station:DISL:DISL:1,2019-02-03T15:41:00Z,30.2513,-88.0778,1018.964751,1111122 
DISL,ioos:station:DISL:DISL:1,2019-02-03T16:41:00Z,30.2513,-88.0778,1018.287473,1111122 
DISL,ioos:station:DISL:DISL:1,2019-02-03T17:41:00Z,30.2513,-88.0778,1018.287473,1111122 
DISL,ioos:station:DISL:DISL:1,2019-02-03T18:41:00Z,30.2513,-88.0778,1017.610195,1111122 
DISL,ioos:station:DISL:DISL:1,2019-02-03T19:41:00Z,30.2513,-88.0778,1016.255639,1111122 
DISL,ioos:station:DISL:DISL:1,2019-02-03T20:41:00Z,30.2513,-88.0778,1015.917,1111122 
DISL,ioos:station:DISL:DISL:1,2019-02-03T21:41:00Z,30.2513,-88.0778,1015.917,1111122 
DISL,ioos:station:DISL:DISL:1,2019-02-03T23:11:00Z,30.2513,-88.0778,1016.255639,1111122 
DISL,ioos:station:DISL:DISL:1,2019-02-03T23:41:00Z,30.2513,-88.0778,1016.255639,1111122 
DISL,ioos:station:DISL:DISL:1,2019-02-04T00:41:00Z,30.2513,-88.0778,1016.594278,1111122 
DISL,ioos:station:DISL:DISL:1,2019-02-04T01:41:00Z,30.2513,-88.0778,1017.271556,1111122 
DISL,ioos:station:DISL:DISL:1,2019-02-04T02:41:00Z,30.2513,-88.0778,1016.594278,1111122 
DISL,ioos:station:DISL:DISL:1,2019-02-04T03:41:00Z,30.2513,-88.0778,1016.932917,1111122 
DISL,ioos:station:DISL:DISL:1,2019-02-04T04:41:00Z,30.2513,-88.0778,1017.271556,1111122 
DISL,ioos:station:DISL:DISL:1,2019-02-04T05:41:00Z,30.2513,-88.0778,1017.271556,1111122 
DISL,ioos:station:DISL:DISL:1,2019-02-04T06:41:00Z,30.2513,-88.0778,1016.932917,1111122 
DISL,ioos:station:DISL:DISL:1,2019-02-04T07:41:00Z,30.2513,-88.0778,1016.255639,1111122 
DISL,ioos:station:DISL:DISL:1,2019-02-04T08:41:00Z,30.2513,-88.0778,1015.578361,1111122 
DISL,ioos:station:DISL:DISL:1,2019-02-04T09:41:00Z,30.2513,-88.0778,1015.917,1111122 
DISL,ioos:station:DISL:DISL:1,2019-02-04T10:41:00Z,30.2513,-88.0778,1016.255639,1111122 
DISL,ioos:station:DISL:DISL:1,2019-02-04T11:41:00Z,30.2513,-88.0778,1016.594278,1111122 
DISL,ioos:station:DISL:DISL:1,2019-02-04T12:41:00Z,30.2513,-88.0778,1016.594278,1111122 
DISL,ioos:station:DISL:DISL:1,2019-02-04T13:41:00Z,30.2513,-88.0778,1016.932917,1111122 
DISL,ioos:station:DISL:DISL:1,2019-02-04T14:41:00Z,30.2513,-88.0778,1017.948834,1111122 
DISL,ioos:station:DISL:DISL:1,2019-02-04T15:41:00Z,30.2513,-88.0778,1017.948834,1111122 
DISL,ioos:station:DISL:DISL:1,2019-02-04T16:41:00Z,30.2513,-88.0778,1018.287473,1111122 
DISL,ioos:station:DISL:DISL:1,2019-02-04T17:41:00Z,30.2513,-88.0778,1017.948834,1111122 
DISL,ioos:station:DISL:DISL:1,2019-02-04T18:41:00Z,30.2513,-88.0778,1017.271556,1111122 
DISL,ioos:station:DISL:DISL:1,2019-02-04T19:41:00Z,30.2513,-88.0778,1016.255639,1111122 
DISL,ioos:station:DISL:DISL:1,2019-02-04T20:41:00Z,30.2513,-88.0778,1015.917,1111122 
DISL,ioos:station:DISL:DISL:1,2019-02-04T21:41:00Z,30.2513,-88.0778,1015.917,1111122 
DISL,ioos:station:DISL:DISL:1,2019-02-04T22:41:00Z,30.2513,-88.0778,1015.917,1111122 
DISL,ioos:station:DISL:DISL:1,2019-02-04T23:41:00Z,30.2513,-88.0778,1015.917,1111122 
DISL,ioos:station:DISL:DISL:1,2019-02-05T00:41:00Z,30.2513,-88.0778,1016.594278,1111122 
DISL,ioos:station:DISL:DISL:1,2019-02-05T01:41:00Z,30.2513,-88.0778,1016.255639,1111122 
DISL,ioos:station:DISL:DISL:1,2019-02-05T02:41:00Z,30.2513,-88.0778,1017.271556,1111122 
DISL,ioos:station:DISL:DISL:1,2019-02-05T03:41:00Z,30.2513,-88.0778,1016.932917,1111122 
DISL,ioos:station:DISL:DISL:1,2019-02-05T04:41:00Z,30.2513,-88.0778,1016.594278,1111122 
DISL,ioos:station:DISL:DISL:1,2019-02-05T05:41:00Z,30.2513,-88.0778,1016.932917,1111122 
DISL,ioos:station:DISL:DISL:1,2019-02-05T06:41:00Z,30.2513,-88.0778,1016.594278,1111122 
DISL,ioos:station:DISL:DISL:1,2019-02-05T07:41:00Z,30.2513,-88.0778,1016.594278,1111122 
DISL,ioos:station:DISL:DISL:1,2019-02-05T08:40:00Z,30.2513,-88.0778,1016.594278,1111122 
DISL,ioos:station:DISL:DISL:1,2019-02-05T09:40:00Z,30.2513,-88.0778,1016.255639,1111122 
DISL,ioos:station:DISL:DISL:1,2019-02-05T10:40:00Z,30.2513,-88.0778,1016.932917,1111122 
DISL,ioos:station:DISL:DISL:1,2019-02-05T11:40:00Z,30.2513,-88.0778,1017.610195,1111122 
DISL,ioos:station:DISL:DISL:1,2019-02-05T12:40:00Z,30.2513,-88.0778,1017.948834,1111122 
DISL,ioos:station:DISL:DISL:1,2019-02-05T13:40:00Z,30.2513,-88.0778,1019.30339,1111122 
DISL,ioos:station:DISL:DISL:1,2019-02-05T15:10:00Z,30.2513,-88.0778,1019.30339,1111122 
DISL,ioos:station:DISL:DISL:1,2019-02-05T16:10:00Z,30.2513,-88.0778,1019.980668,1111122 
DISL,ioos:station:DISL:DISL:1,2019-02-05T17:10:00Z,30.2513,-88.0778,1019.980668,1111122 
DISL,ioos:station:DISL:DISL:1,2019-02-05T18:10:00Z,30.2513,-88.0778,1018.626112,1111122 
DISL,ioos:station:DISL:DISL:1,2019-02-05T19:10:00Z,30.2513,-88.0778,1018.626112,1111122 
DISL,ioos:station:DISL:DISL:1,2019-02-05T20:10:00Z,30.2513,-88.0778,1018.287473,1111122 
DISL,ioos:station:DISL:DISL:1,2019-02-05T21:10:00Z,30.2513,-88.0778,1017.610195,1111122 
DISL,ioos:station:DISL:DISL:1,2019-02-05T22:10:00Z,30.2513,-88.0778,1017.610195,1111122 
DISL,ioos:station:DISL:DISL:1,2019-02-05T23:10:00Z,30.2513,-88.0778,1017.610195,1111122 
DISL,ioos:station:DISL:DISL:1,2019-02-05T23:40:00Z,30.2513,-88.0778,1017.948834,1111122 
DISL,ioos:station:DISL:DISL:1,2019-02-06T00:40:00Z,30.2513,-88.0778,1017.948834,1111122 
DISL,ioos:station:DISL:DISL:1,2019-02-06T01:40:00Z,30.2513,-88.0778,1017.948834,1111122 
DISL,ioos:station:DISL:DISL:1,2019-02-06T02:40:00Z,30.2513,-88.0778,1018.626112,1111122 
DISL,ioos:station:DISL:DISL:1,2019-02-06T03:40:00Z,30.2513,-88.0778,1018.964751,1111122 
DISL,ioos:station:DISL:DISL:1,2019-02-06T04:40:00Z,30.2513,-88.0778,1018.964751,1111122 
DISL,ioos:station:DISL:DISL:1,2019-02-06T05:40:00Z,30.2513,-88.0778,1018.626112,1111122 
DISL,ioos:station:DISL:DISL:1,2019-02-06T06:40:00Z,30.2513,-88.0778,1018.964751,1111122 
DISL,ioos:station:DISL:DISL:1,2019-02-06T07:40:00Z,30.2513,-88.0778,1018.626112,1111122 
DISL,ioos:station:DISL:DISL:1,2019-02-06T08:40:00Z,30.2513,-88.0778,1018.626112,1111122 
DISL,ioos:station:DISL:DISL:1,2019-02-06T09:40:00Z,30.2513,-88.0778,1018.287473,1111122 
DISL,ioos:station:DISL:DISL:1,2019-02-06T10:40:00Z,30.2513,-88.0778,1018.287473,1111122 
DISL,ioos:station:DISL:DISL:1,2019-02-06T12:10:00Z,30.2513,-88.0778,1018.287473,1111122 
DISL,ioos:station:DISL:DISL:1,2019-02-06T13:10:00Z,30.2513,-88.0778,1018.964751,1111122 
DISL,ioos:station:DISL:DISL:1,2019-02-06T13:40:00Z,30.2513,-88.0778,1018.626112,1111122 
DISL,ioos:station:DISL:DISL:1,2019-02-06T15:10:00Z,30.2513,-88.0778,1019.980668,1111122 
DISL,ioos:station:DISL:DISL:1,2019-02-06T16:10:00Z,30.2513,-88.0778,1020.319307,1111122 
DISL,ioos:station:DISL:DISL:1,2019-02-06T17:10:00Z,30.2513,-88.0778,1020.319307,1111122 
DISL,ioos:station:DISL:DISL:1,2019-02-06T18:10:00Z,30.2513,-88.0778,1019.642029,1111122 
DISL,ioos:station:DISL:DISL:1,2019-02-06T19:10:00Z,30.2513,-88.0778,1018.964751,1111122 
DISL,ioos:station:DISL:DISL:1,2019-02-06T20:10:00Z,30.2513,-88.0778,1018.964751,1111122 
DISL,ioos:station:DISL:DISL:1,2019-02-06T21:10:00Z,30.2513,-88.0778,1018.964751,1111122 
DISL,ioos:station:DISL:DISL:1,2019-02-06T23:10:00Z,30.2513,-88.0778,1018.287473,1111122 
DISL,ioos:station:DISL:DISL:1,2019-02-06T23:40:00Z,30.2513,-88.0778,1017.948834,1111122 
DISL,ioos:station:DISL:DISL:1,2019-02-07T00:40:00Z,30.2513,-88.0778,1018.626112,1111122 
DISL,ioos:station:DISL:DISL:1,2019-02-07T01:40:00Z,30.2513,-88.0778,1018.626112,1111122 
DISL,ioos:station:DISL:DISL:1,2019-02-07T02:40:00Z,30.2513,-88.0778,1018.964751,1111122 
DISL,ioos:station:DISL:DISL:1,2019-02-07T03:40:00Z,30.2513,-88.0778,1018.964751,1111122 
DISL,ioos:station:DISL:DISL:1,2019-02-07T04:40:00Z,30.2513,-88.0778,1018.626112,1111122 
DISL,ioos:station:DISL:DISL:1,2019-02-07T05:40:00Z,30.2513,-88.0778,1018.287473,1111122 
DISL,ioos:station:DISL:DISL:1,2019-02-07T06:40:00Z,30.2513,-88.0778,1017.610195,1111122 
DISL,ioos:station:DISL:DISL:1,2019-02-07T08:10:00Z,30.2513,-88.0778,1017.271556,1111122 
DISL,ioos:station:DISL:DISL:1,2019-02-07T08:40:00Z,30.2513,-88.0778,1017.271556,1111122 
DISL,ioos:station:DISL:DISL:1,2019-02-07T09:40:00Z,30.2513,-88.0778,1017.271556,1111122 
DISL,ioos:station:DISL:DISL:1,2019-02-07T10:40:00Z,30.2513,-88.0778,1017.271556,1111122 
DISL,ioos:station:DISL:DISL:1,2019-02-07T11:40:00Z,30.2513,-88.0778,1017.610195,1111122 
DISL,ioos:station:DISL:DISL:1,2019-02-07T12:40:00Z,30.2513,-88.0778,1017.948834,1111122 
DISL,ioos:station:DISL:DISL:1,2019-02-07T13:40:00Z,30.2513,-88.0778,1018.287473,1111122 
DISL,ioos:station:DISL:DISL:1,2019-02-07T15:10:00Z,30.2513,-88.0778,1019.30339,1111122 
DISL,ioos:station:DISL:DISL:1,2019-02-07T15:40:00Z,30.2513,-88.0778,1019.30339,1111122 
DISL,ioos:station:DISL:DISL:1,2019-02-07T17:10:00Z,30.2513,-88.0778,1019.980668,1111122 
DISL,ioos:station:DISL:DISL:1,2019-02-07T18:10:00Z,30.2513,-88.0778,1019.642029,1111122 
DISL,ioos:station:DISL:DISL:1,2019-02-07T19:10:00Z,30.2513,-88.0778,1019.30339,1111122 
DISL,ioos:station:DISL:DISL:1,2019-02-07T20:10:00Z,30.2513,-88.0778,1018.287473,1111122 
DISL,ioos:station:DISL:DISL:1,2019-02-07T21:10:00Z,30.2513,-88.0778,1018.626112,1111122 
DISL,ioos:station:DISL:DISL:1,2019-02-07T22:10:00Z,30.2513,-88.0778,1018.287473,1111122 
DISL,ioos:station:DISL:DISL:1,2019-02-07T23:10:00Z,30.2513,-88.0778,1017.948834,1111122 
DISL,ioos:station:DISL:DISL:1,2019-02-07T23:40:00Z,30.2513,-88.0778,1018.626112,1111122 
DISL,ioos:station:DISL:DISL:1,2019-02-08T00:40:00Z,30.2513,-88.0778,1019.30339,1111122 
DISL,ioos:station:DISL:DISL:1,2019-02-08T01:40:00Z,30.2513,-88.0778,1019.642029,1111122 
DISL,ioos:station:DISL:DISL:1,2019-02-08T02:40:00Z,30.2513,-88.0778,1019.980668,1111122 
DISL,ioos:station:DISL:DISL:1,2019-02-08T03:40:00Z,30.2513,-88.0778,1019.980668,1111122 
DISL,ioos:station:DISL:DISL:1,2019-02-08T04:40:00Z,30.2513,-88.0778,1019.980668,1111122 
DISL,ioos:station:DISL:DISL:1,2019-02-08T05:40:00Z,30.2513,-88.0778,1020.657946,1111122 
DISL,ioos:station:DISL:DISL:1,2019-02-08T06:40:00Z,30.2513,-88.0778,1020.657946,1111122 
DISL,ioos:station:DISL:DISL:1,2019-02-08T07:40:00Z,30.2513,-88.0778,1021.335224,1111122 
DISL,ioos:station:DISL:DISL:1,2019-02-08T08:40:00Z,30.2513,-88.0778,1022.012502,1111122 
DISL,ioos:station:DISL:DISL:1,2019-02-08T09:40:00Z,30.2513,-88.0778,1022.68978,1111122 
DISL,ioos:station:DISL:DISL:1,2019-02-08T10:40:00Z,30.2513,-88.0778,1023.028419,1111122 
DISL,ioos:station:DISL:DISL:1,2019-02-08T11:40:00Z,30.2513,-88.0778,1024.382975,1111122 
DISL,ioos:station:DISL:DISL:1,2019-02-08T12:40:00Z,30.2513,-88.0778,1024.721614,1111122 
DISL,ioos:station:DISL:DISL:1,2019-02-08T13:40:00Z,30.2513,-88.0778,1026.414809,1111122 
DISL,ioos:station:DISL:DISL:1,2019-02-08T14:40:00Z,30.2513,-88.0778,1027.092087,1111122 
DISL,ioos:station:DISL:DISL:1,2019-02-08T16:10:00Z,30.2513,-88.0778,1028.446643,1111122 
DISL,ioos:station:DISL:DISL:1,2019-02-08T16:40:00Z,30.2513,-88.0778,1028.446643,1111122 
DISL,ioos:station:DISL:DISL:1,2019-02-08T17:40:00Z,30.2513,-88.0778,1028.446643,1111122 
DISL,ioos:station:DISL:DISL:1,2019-02-08T18:40:00Z,30.2513,-88.0778,1028.108004,1111122 
DISL,ioos:station:DISL:DISL:1,2019-02-08T20:10:00Z,30.2513,-88.0778,1027.430726,1111122 
DISL,ioos:station:DISL:DISL:1,2019-02-08T21:10:00Z,30.2513,-88.0778,1027.092087,1111122 
DISL,ioos:station:DISL:DISL:1,2019-02-08T22:10:00Z,30.2513,-88.0778,1027.092087,1111122 
DISL,ioos:station:DISL:DISL:1,2019-02-08T23:10:00Z,30.2513,-88.0778,1027.430726,1111122 
DISL,ioos:station:DISL:DISL:1,2019-02-08T23:40:00Z,30.2513,-88.0778,1028.108004,1111122 
DISL,ioos:station:DISL:DISL:1,2019-02-09T00:40:00Z,30.2513,-88.0778,1029.123921,1111122 
DISL,ioos:station:DISL:DISL:1,2019-02-09T01:40:00Z,30.2513,-88.0778,1029.801199,1111122 
DISL,ioos:station:DISL:DISL:1,2019-02-09T02:40:00Z,30.2513,-88.0778,1030.478477,1111122 
DISL,ioos:station:DISL:DISL:1,2019-02-09T03:40:00Z,30.2513,-88.0778,1031.494394,1111122 
DISL,ioos:station:DISL:DISL:1,2019-02-09T04:40:00Z,30.2513,-88.0778,1030.817116,1111122 
DISL,ioos:station:DISL:DISL:1,2019-02-09T05:40:00Z,30.2513,-88.0778,1030.478477,1111122 
DISL,ioos:station:DISL:DISL:1,2019-02-09T06:40:00Z,30.2513,-88.0778,1030.817116,1111122 
DISL,ioos:station:DISL:DISL:1,2019-02-09T07:40:00Z,30.2513,-88.0778,1030.139838,1111122 
DISL,ioos:station:DISL:DISL:1,2019-02-09T08:40:00Z,30.2513,-88.0778,1030.139838,1111122 
DISL,ioos:station:DISL:DISL:1,2019-02-09T09:40:00Z,30.2513,-88.0778,1030.478477,1111122 
DISL,ioos:station:DISL:DISL:1,2019-02-09T10:40:00Z,30.2513,-88.0778,1030.817116,1111122 
DISL,ioos:station:DISL:DISL:1,2019-02-09T11:40:00Z,30.2513,-88.0778,1031.155755,1111122 
DISL,ioos:station:DISL:DISL:1,2019-02-09T12:40:00Z,30.2513,-88.0778,1031.833033,1111122 
DISL,ioos:station:DISL:DISL:1,2019-02-09T13:40:00Z,30.2513,-88.0778,1032.510311,1111122 
DISL,ioos:station:DISL:DISL:1,2019-02-09T14:40:00Z,30.2513,-88.0778,1033.187589,1111122 
DISL,ioos:station:DISL:DISL:1,2019-02-09T15:40:00Z,30.2513,-88.0778,1032.84895,1111122 
DISL,ioos:station:DISL:DISL:1,2019-02-09T16:40:00Z,30.2513,-88.0778,1032.510311,1111122 
DISL,ioos:station:DISL:DISL:1,2019-02-09T17:40:00Z,30.2513,-88.0778,1030.817116,1111122 
DISL,ioos:station:DISL:DISL:1,2019-02-09T18:40:00Z,30.2513,-88.0778,1030.817116,1111122 
DISL,ioos:station:DISL:DISL:1,2019-02-09T19:40:00Z,30.2513,-88.0778,1029.46256,1111122 
DISL,ioos:station:DISL:DISL:1,2019-02-09T20:40:00Z,30.2513,-88.0778,1029.123921,1111122 
DISL,ioos:station:DISL:DISL:1,2019-02-09T21:40:00Z,30.2513,-88.0778,1029.123921,1111122 
DISL,ioos:station:DISL:DISL:1,2019-02-09T22:40:00Z,30.2513,-88.0778,1029.123921,1111122 
DISL,ioos:station:DISL:DISL:1,2019-02-09T23:40:00Z,30.2513,-88.0778,1029.46256,1111122 
DISL,ioos:station:DISL:DISL:1,2019-02-10T00:40:00Z,30.2513,-88.0778,1029.801199,1111122 
DISL,ioos:station:DISL:DISL:1,2019-02-10T01:40:00Z,30.2513,-88.0778,1029.801199,1111122 
DISL,ioos:station:DISL:DISL:1,2019-02-10T02:40:00Z,30.2513,-88.0778,1029.801199,1111122 
DISL,ioos:station:DISL:DISL:1,2019-02-10T03:40:00Z,30.2513,-88.0778,1029.801199,1111122 
DISL,ioos:station:DISL:DISL:1,2019-02-10T04:40:00Z,30.2513,-88.0778,1029.46256,1111122 
DISL,ioos:station:DISL:DISL:1,2019-02-10T05:40:00Z,30.2513,-88.0778,1028.446643,1111122 
DISL,ioos:station:DISL:DISL:1,2019-02-10T06:40:00Z,30.2513,-88.0778,1028.108004,1111122 
DISL,ioos:station:DISL:DISL:1,2019-02-10T07:40:00Z,30.2513,-88.0778,1027.430726,1111122 
DISL,ioos:station:DISL:DISL:1,2019-02-10T08:40:00Z,30.2513,-88.0778,1027.430726,1111122 
DISL,ioos:station:DISL:DISL:1,2019-02-10T09:40:00Z,30.2513,-88.0778,1026.753448,1111122 
DISL,ioos:station:DISL:DISL:1,2019-02-10T10:40:00Z,30.2513,-88.0778,1026.414809,1111122 
DISL,ioos:station:DISL:DISL:1,2019-02-10T11:40:00Z,30.2513,-88.0778,1026.753448,1111122 
DISL,ioos:station:DISL:DISL:1,2019-02-10T12:40:00Z,30.2513,-88.0778,1026.414809,1111122 
DISL,ioos:station:DISL:DISL:1,2019-02-10T13:40:00Z,30.2513,-88.0778,1027.092087,1111122 
DISL,ioos:station:DISL:DISL:1,2019-02-10T14:40:00Z,30.2513,-88.0778,1027.769365,1111122 
DISL,ioos:station:DISL:DISL:1,2019-02-10T15:40:00Z,30.2513,-88.0778,1027.430726,1111122 
DISL,ioos:station:DISL:DISL:1,2019-02-10T16:40:00Z,30.2513,-88.0778,1027.430726,1111122 
DISL,ioos:station:DISL:DISL:1,2019-02-10T17:40:00Z,30.2513,-88.0778,1026.753448,1111122 
DISL,ioos:station:DISL:DISL:1,2019-02-10T18:40:00Z,30.2513,-88.0778,1025.737531,1111122 
DISL,ioos:station:DISL:DISL:1,2019-02-10T19:40:00Z,30.2513,-88.0778,1025.060253,1111122 
DISL,ioos:station:DISL:DISL:1,2019-02-10T20:40:00Z,30.2513,-88.0778,1024.382975,1111122 
DISL,ioos:station:DISL:DISL:1,2019-02-10T21:40:00Z,30.2513,-88.0778,1023.705697,1111122 
DISL,ioos:station:DISL:DISL:1,2019-02-10T22:40:00Z,30.2513,-88.0778,1023.367058,1111122 
DISL,ioos:station:DISL:DISL:1,2019-02-10T23:40:00Z,30.2513,-88.0778,1023.705697,1111122 
DISL,ioos:station:DISL:DISL:1,2019-02-11T00:40:00Z,30.2513,-88.0778,1023.028419,1111122 
DISL,ioos:station:DISL:DISL:1,2019-02-11T01:40:00Z,30.2513,-88.0778,1023.705697,1111122 
DISL,ioos:station:DISL:DISL:1,2019-02-11T02:40:00Z,30.2513,-88.0778,1023.028419,1111122 
DISL,ioos:station:DISL:DISL:1,2019-02-11T03:40:00Z,30.2513,-88.0778,1023.367058,1111122 
DISL,ioos:station:DISL:DISL:1,2019-02-11T04:40:00Z,30.2513,-88.0778,1022.351141,1111122 
DISL,ioos:station:DISL:DISL:1,2019-02-11T06:10:00Z,30.2513,-88.0778,1021.673863,1111122 
DISL,ioos:station:DISL:DISL:1,2019-02-11T06:40:00Z,30.2513,-88.0778,1021.335224,1111122 
DISL,ioos:station:DISL:DISL:1,2019-02-11T07:40:00Z,30.2513,-88.0778,1021.673863,1111122 
DISL,ioos:station:DISL:DISL:1,2019-02-11T08:40:00Z,30.2513,-88.0778,1020.996585,1111122 
DISL,ioos:station:DISL:DISL:1,2019-02-11T09:40:00Z,30.2513,-88.0778,1019.980668,1111122 
DISL,ioos:station:DISL:DISL:1,2019-02-11T10:40:00Z,30.2513,-88.0778,1019.642029,1111122 
DISL,ioos:station:DISL:DISL:1,2019-02-11T11:40:00Z,30.2513,-88.0778,1018.626112,1111122 
DISL,ioos:station:DISL:DISL:1,2019-02-11T12:40:00Z,30.2513,-88.0778,1018.964751,1111122 
DISL,ioos:station:DISL:DISL:1,2019-02-11T13:40:00Z,30.2513,-88.0778,1018.626112,1111122 
DISL,ioos:station:DISL:DISL:1,2019-02-11T14:40:00Z,30.2513,-88.0778,1018.964751,1111122 
DISL,ioos:station:DISL:DISL:1,2019-02-11T15:40:00Z,30.2513,-88.0778,1018.964751,1111122 
DISL,ioos:station:DISL:DISL:1,2019-02-11T16:40:00Z,30.2513,-88.0778,1017.948834,1111122 
DISL,ioos:station:DISL:DISL:1,2019-02-11T17:40:00Z,30.2513,-88.0778,1016.594278,1111122 
DISL,ioos:station:DISL:DISL:1,2019-02-11T18:40:00Z,30.2513,-88.0778,1015.239722,1111122 
DISL,ioos:station:DISL:DISL:1,2019-02-11T19:40:00Z,30.2513,-88.0778,1014.901083,1111122 
DISL,ioos:station:DISL:DISL:1,2019-02-11T20:40:00Z,30.2513,-88.0778,1014.223805,1111122 
DISL,ioos:station:DISL:DISL:1,2019-02-11T21:40:00Z,30.2513,-88.0778,1014.223805,1111122 
DISL,ioos:station:DISL:DISL:1,2019-02-11T22:40:00Z,30.2513,-88.0778,1014.223805,1111122 
DISL,ioos:station:DISL:DISL:1,2019-02-11T23:40:00Z,30.2513,-88.0778,1014.562444,1111122 
DISL,ioos:station:DISL:DISL:1,2019-02-12T00:40:00Z,30.2513,-88.0778,1014.223805,1111122 
DISL,ioos:station:DISL:DISL:1,2019-02-12T01:40:00Z,30.2513,-88.0778,1014.901083,1111122 
DISL,ioos:station:DISL:DISL:1,2019-02-12T02:40:00Z,30.2513,-88.0778,1014.223805,1111122 
DISL,ioos:station:DISL:DISL:1,2019-02-12T03:40:00Z,30.2513,-88.0778,1014.562444,1111122 
DISL,ioos:station:DISL:DISL:1,2019-02-12T04:40:00Z,30.2513,-88.0778,1014.901083,1111122 
DISL,ioos:station:DISL:DISL:1,2019-02-12T05:40:00Z,30.2513,-88.0778,1014.562444,1111122 